Satellite: MET-2/21 Catalog number: 22782 Epoch time: 07032.41661069 Element set: 737 Inclination: 082.5497 deg RA of node: 149.6240 deg Eccentricity: 0.0020939 Arg of perigee: 256.4805 deg Mean anomaly: 103.4025 deg Mean motion: 13.83613087 rev/day Decay rate: -9.1e-07 rev/day^2 Epoch rev: 67774 Checksum: 310
Satellite: OKEAN-4 Catalog number: 23317 Epoch time: 07031.70359516 Element set: 174 Inclination: 082.5375 deg RA of node: 063.8654 deg Eccentricity: 0.0021801 Arg of perigee: 346.8391 deg Mean anomaly: 013.2272 deg Mean motion: 14.82460380 rev/day Decay rate: 1.0e-07 rev/day^2 Epoch rev: 66383 Checksum: 278
Satellite: NOAA-14 Catalog number: 23455 Epoch time: 07032.19116231 Element set: 496 Inclination: 099.0092 deg RA of node: 097.5520 deg Eccentricity: 0.0010146 Arg of perigee: 123.4960 deg Mean anomaly: 236.7201 deg Mean motion: 14.13694863 rev/day Decay rate: -1.57e-06 rev/day^2 Epoch rev: 62342 Checksum: 280
Satellite: SICH-1 Catalog number: 23657 Epoch time: 07031.71818006 Element set: 975 Inclination: 082.5260 deg RA of node: 204.7509 deg Eccentricity: 0.0023232 Arg of perigee: 335.3718 deg Mean anomaly: 024.6392 deg Mean motion: 14.81446828 rev/day Decay rate: 2.89e-06 rev/day^2 Epoch rev: 61582 Checksum: 302
Satellite: NOAA-15 Catalog number: 25338 Epoch time: 07032.12973198 Element set: 858 Inclination: 098.5268 deg RA of node: 032.6803 deg Eccentricity: 0.0011388 Arg of perigee: 068.5226 deg Mean anomaly: 291.7165 deg Mean motion: 14.24624032 rev/day Decay rate: -6.8e-07 rev/day^2 Epoch rev: 45331 Checksum: 311
Satellite: RESURS Catalog number: 25394 Epoch time: 07031.76692835 Element set: 561 Inclination: 098.4586 deg RA of node: 091.5718 deg Eccentricity: 0.0000858 Arg of perigee: 200.8269 deg Mean anomaly: 159.2875 deg Mean motion: 14.24126957 rev/day Decay rate: 2.68e-06 rev/day^2 Epoch rev: 44493 Checksum: 338
Satellite: FENGYUN1 Catalog number: 25730 Epoch time: 07016.60112448 Element set: 932 Inclination: 098.6469 deg RA of node: 006.2281 deg Eccentricity: 0.0014921 Arg of perigee: 004.1687 deg Mean anomaly: 356.0079 deg Mean motion: 14.06556409 rev/day Decay rate: 4.8e-07 rev/day^2 Epoch rev: 39613 Checksum: 290
Satellite: OKEAN-0 Catalog number: 25860 Epoch time: 07031.53006843 Element set: 0968 Inclination: 097.7309 deg RA of node: 040.1704 deg Eccentricity: 0.0001889 Arg of perigee: 085.1162 deg Mean anomaly: 275.0264 deg Mean motion: 14.73426676 rev/day Decay rate: 4.8e-07 rev/day^2 Epoch rev: 40537 Checksum: 298
Satellite: NOAA-16 Catalog number: 26536 Epoch time: 07032.10660437 Element set: 262 Inclination: 099.1000 deg RA of node: 006.7938 deg Eccentricity: 0.0010393 Arg of perigee: 192.7871 deg Mean anomaly: 167.3013 deg Mean motion: 14.12403397 rev/day Decay rate: 2.38e-06 rev/day^2 Epoch rev: 32789 Checksum: 288
Satellite: NOAA-17 Catalog number: 27453 Epoch time: 07032.47392666 Element set: 279 Inclination: 098.5974 deg RA of node: 104.9470 deg Eccentricity: 0.0012588 Arg of perigee: 127.7263 deg Mean anomaly: 232.5055 deg Mean motion: 14.23849713 rev/day Decay rate: 8.0e-08 rev/day^2 Epoch rev: 23940 Checksum: 323
Satellite: NOAA-18 Catalog number: 28654 Epoch time: 07032.17972936 Element set: 825 Inclination: 098.8158 deg RA of node: 335.8450 deg Eccentricity: 0.0013725 Arg of perigee: 295.0014 deg Mean anomaly: 064.9744 deg Mean motion: 14.11034978 rev/day Decay rate: 4.69e-06 rev/day^2 Epoch rev: 8767 Checksum: 340
/EX SB KEPS @ AMSAT $ORB07032.M Orbital Elements 07032.MISC
HR AMSAT ORBITAL ELEMENTS FOR MANNED AND MISCELLANEOUS SATELLITES FROM WA5QGD FORT WORTH,TX February 1, 2007 Send SUBSCRIBE KEPS/UNSUBSCRIBE KEPS to [email protected] only BID: ORB07032.M TO ALL RADIO AMATEURS BT
Satellite: HUBBLE Catalog number: 20580 Epoch time: 07032.29474427 Element set: 795 Inclination: 028.4697 deg RA of node: 356.2096 deg Eccentricity: 0.0004100 Arg of perigee: 098.9778 deg Mean anomaly: 261.1752 deg Mean motion: 15.00182257 rev/day Decay rate: -2.10e-06 rev/day^2 Epoch rev: 71953 Checksum: 300
Satellite: UARS Catalog number: 21701 Epoch time: 07032.87728509 Element set: 985 Inclination: 056.9758 deg RA of node: 180.4635 deg Eccentricity: 0.0090560 Arg of perigee: 292.4540 deg Mean anomaly: 066.6947 deg Mean motion: 15.46553838 rev/day Decay rate: 6.707e-05 rev/day^2 Epoch rev: 84480 Checksum: 342
Satellite: PO-34 Catalog number: 25520 Epoch time: 07031.92462143 Element set: 0669 Inclination: 028.4612 deg RA of node: 300.6902 deg Eccentricity: 0.0005712 Arg of perigee: 210.6133 deg Mean anomaly: 149.4127 deg Mean motion: 15.16915209 rev/day Decay rate: 6.51e-06 rev/day^2 Epoch rev: 45681 Checksum: 271
Satellite: ISS Catalog number: 25544 Epoch time: 07033.00579900 Element set: 562 Inclination: 051.6353 deg RA of node: 082.5807 deg Eccentricity: 0.0022442 Arg of perigee: 157.7988 deg Mean anomaly: 274.2303 deg Mean motion: 15.77789868 rev/day Decay rate: 2.5711e-04 rev/day^2 Epoch rev: 46942 Checksum: 323
Satellite: OO-38 Catalog number: 26063 Epoch time: 07032.49197539 Element set: 829 Inclination: 100.2160 deg RA of node: 010.1052 deg Eccentricity: 0.0036860 Arg of perigee: 181.1351 deg Mean anomaly: 178.9745 deg Mean motion: 14.35794616 rev/day Decay rate: 8.0e-08 rev/day^2 Epoch rev: 36757 Checksum: 303
Satellite: NO-45 Catalog number: 26932 Epoch time: 07031.79595325 Element set: 0525 Inclination: 067.0543 deg RA of node: 138.5668 deg Eccentricity: 0.0003629 Arg of perigee: 278.2912 deg Mean anomaly: 081.7777 deg Mean motion: 14.29548077 rev/day Decay rate: -1.0e-07 rev/day^2 Epoch rev: 27864 Checksum: 336
Satellite: UWE-1 Catalog number: 28892 Epoch time: 07031.23277781 Element set: 0667 Inclination: 098.1452 deg RA of node: 290.4865 deg Eccentricity: 0.0017302 Arg of perigee: 176.8800 deg Mean anomaly: 183.2515 deg Mean motion: 14.59458339 rev/day Decay rate: -5.0e-08 rev/day^2 Epoch rev: 06723 Checksum: 315
Satellite: CO-58 Catalog number: 28895 Epoch time: 07032.65573213 Element set: 648 Inclination: 098.1485 deg RA of node: 292.0452 deg Eccentricity: 0.0018046 Arg of perigee: 172.4021 deg Mean anomaly: 187.7481 deg Mean motion: 14.59509663 rev/day Decay rate: 2.39e-06 rev/day^2 Epoch rev: 6732 Checksum: 328
Satellite: NCUBE2 Catalog number: 28897 Epoch time: 07031.71722818 Element set: 0180 Inclination: 098.1484 deg RA of node: 291.0930 deg Eccentricity: 0.0017462 Arg of perigee: 176.7990 deg Mean anomaly: 183.3322 deg Mean motion: 14.59667943 rev/day Decay rate: 1.16e-06 rev/day^2 Epoch rev: 05946 Checksum: 326
Satellite: NMARS Catalog number: 29662 Epoch time: 07032.58989979 Element set: 60 Inclination: 051.6401 deg RA of node: 082.1774 deg Eccentricity: 0.0010930 Arg of perigee: 167.0025 deg Mean anomaly: 193.1254 deg Mean motion: 15.87356516 rev/day Decay rate: 8.5946e-04 rev/day^2 Epoch rev: 664 Checksum: 314
Satellite: FCAL Catalog number: 29664 Epoch time: 07032.51522574 Element set: 43 Inclination: 051.6336 deg RA of node: 083.1671 deg Eccentricity: 0.0015807 Arg of perigee: 169.1453 deg Mean anomaly: 191.0427 deg Mean motion: 15.83762255 rev/day Decay rate: 2.8133e-04 rev/day^2 Epoch rev: 660 Checksum: 281
/EX